Hauptseite
METAR-TAF:

METAR-TAF

Flughäfen :

Awg-1, Niederlande

Bohrplattform

Breite: 53-29-30N, Länge: 5-56-30E, Höhe: 33 m

Beobachtung

Neuester Wetterbericht von vor 44 Minuten, um 23:55 UTC
Wind 12 kt aus West/Nordwest
Temperatur 8°C
Luftfeuchtigkeit 81%
Luftdruck 1012 hPa
Sichtweite 10 km oder mehr
Leicht bewölkt in der Höhe von 1300 ft
Aufgelockert bewölkt in der Höhe von 2000 ft
Geschlossene Wolkendecke in der Höhe von 3600 ft

METAR: EHMA 272355Z AUTO 29012KT 9999 FEW013 SCT020 OVC036 08/05 Q1012

Zeit: 02:39 (00:39 UTC)


TAF: fehlend

Wetterbeobachtungen und Prognosen von mehr als 4000 Flughäfen (METAR und TAF Bericht).

Die verfügbaren Stationen werden durch gelbe und rote Markierungen auf der Karte dargestellt.

Führen Sie die Maus auf sie, um den Namen der Station zu sehen.

Darauf klicken, um die Beobachtung von Wetterbeobachtungen und Prognosen zu sehen.

Um die Karte zu ändern : klicken Sie auf den grünen Tasten mit einem schwarzen Kreuz Zum Vergrößern, auf den grünen Button mit einem Gedankenstrich zu verkleinern, oder auf die grünen Pfeile für benachbarte Karten.


METAR-TAF: